Location: Berville
(49.1893°N, 2.0748°E)
Time: 12:32:30
(UTC+00:00)

ATLAS CENTAUR R/B - Visible Passes

Search period start: 25 September 2023 00:00
Search period end: 05 October 2023 00:00
Orbit: 461 x 615 km, 64.7° (Epoch: 21 September)

Date Brightness Start Highest point End Pass type
(mag) Time Alt. Az. Time Alt. Az. Time Alt. Az.
27 Sep 4.0 04:38:15 10° N 04:38:50 10° NNE 04:39:25 10° NNE visible
28 Sep 3.9 04:29:08 10° N 04:30:14 11° NNE 04:31:19 10° NE visible
29 Sep 3.9 04:20:10 10° N 04:21:37 12° NNE 04:23:02 10° NE visible
30 Sep 3.9 04:11:13 10° N 04:12:56 13° NNE 04:14:40 10° NE visible
01 Oct 3.9 04:02:16 10° N 04:04:15 14° NNE 04:06:13 10° ENE visible
02 Oct 3.8 03:53:19 10° N 03:55:31 15° NNE 03:57:43 10° ENE visible
03 Oct 3.8 03:44:21 10° NNW 03:46:46 17° NNE 03:49:10 10° ENE visible
03 Oct 1.0 05:21:47 10° NW 05:25:23 88° SW 05:28:58 10° SE visible
04 Oct 3.6 03:35:24 10° NNW 03:37:59 18° NNE 03:40:34 10° ENE visible
04 Oct 0.9 05:12:55 10° NW 05:16:30 74° SW 05:20:04 10° SSE visible
